Danbury, CT

3:52 PM EST on February 13, 2016 (GMT -0500)
Danbury Municipal

Weather History for KDXR - December, 2013

Change the Weather History Date:

Sunday, December 1, 2013

  Actual Average Record
Temperature  
Mean Temperature 38 °F -  
Max Temperature 46 °F 43 °F 66 °F (1991)
Min Temperature 30 °F 26 °F 8 °F (1976)
Degree Days  
Heating Degree Days 27    
Moisture  
Dew Point 26 °F    
Average Humidity 68    
Maximum Humidity 88    
Minimum Humidity 56    
Precipitation  
Precipitation 0.18 in - - ()
Sea Level Pressure  
Sea Level Pressure 30.20 in    
Wind  
Wind Speed 0 mph (NW)    
Max Wind Speed 5 mph    
Max Gust Speed -    
Visibility 10 miles    
Events      
Averages and records for this station are not official NWS values.
T = Trace of Precipitation, MM = Missing Value Source: NWS Daily Summary

Daily Weather History Graph

Daily Weather History Graph

Search for Another Location

Airport or City:

Trip Planner

Search our weather history database for the weather conditions in past years. The results will help you decide how hot, cold, wet, or windy it might be!

Date:

Astronomy

Dec. 01, 2013 Rise Set
Actual Time 7:00 AM EST 4:25 PM EST
Civil Twilight 6:29 AM EST 4:56 PM EST
Nautical Twilight 5:55 AM EST 5:30 PM EST
Astronomical Twilight 5:22 AM EST 6:03 PM EST
Moon 5:14 AM EST (12/1) 3:33 PM EST (12/1)
Length of Visible Light 10h 26m
Length of Day
9h 24m
Waning Crescent, 2% of the Moon is Illuminated
Dec 1
Waning Crescent
Dec 2
New
Dec 9
First Quarter
Dec 17
Full
Dec 25
Last Quarter

Hourly Weather History & Observations

Time (EST) Temp. Windchill Dew Point Humidity Pressure Visibility Wind Dir Wind Speed Gust Speed Precip Events Conditions
12:53 AM 30.9 °F - 19.9 °F 64% 30.38 in 10.0 mi Calm Calm - N/A   Overcast
1:38 AM 30.2 °F - 19.4 °F 64% 30.34 in 10.0 mi Calm Calm - 0.01 in   Overcast
1:53 AM 30.9 °F - 19.9 °F 64% 30.36 in 10.0 mi Calm Calm - 0.01 in   Overcast
2:32 AM 30.2 °F - 19.4 °F 64% 30.33 in 10.0 mi Calm Calm - N/A   Overcast
2:53 AM 30.9 °F - 19.9 °F 64% 30.33 in 10.0 mi Calm Calm - N/A   Overcast
3:09 AM 30.2 °F - 19.4 °F 64% 30.31 in 10.0 mi Calm Calm - N/A   Overcast
3:19 AM 30.2 °F - 19.4 °F 64% 30.30 in 10.0 mi Calm Calm - N/A   Overcast
3:53 AM 30.9 °F - 21.0 °F 67% 30.30 in 10.0 mi Calm Calm - 0.01 in   Overcast
4:09 AM 30.2 °F - 21.2 °F 69% 30.29 in 10.0 mi Calm Calm - N/A   Overcast
4:53 AM 32.0 °F - 21.0 °F 64% 30.28 in 10.0 mi Calm Calm - N/A   Overcast
5:53 AM 32.0 °F - 21.9 °F 66% 30.27 in 10.0 mi Calm Calm - 0.01 in   Overcast
6:00 AM 32.0 °F - 23.0 °F 69% 30.25 in 10.0 mi Calm Calm - N/A   Overcast
6:53 AM 32.0 °F - 23.0 °F 69% 30.27 in 10.0 mi Calm Calm - N/A   Overcast
7:31 AM 30.2 °F - 23.0 °F 75% 30.24 in 9.0 mi Calm Calm - 0.01 in   Mostly Cloudy
7:53 AM 30.9 °F - 24.1 °F 76% 30.26 in 9.0 mi Calm Calm - 0.01 in   Mostly Cloudy
8:53 AM 35.1 °F - 25.0 °F 67% 30.24 in 9.0 mi Calm Calm - 0.01 in   Mostly Cloudy
9:53 AM 39.9 °F 37.8 °F 28.0 °F 63% 30.22 in 10.0 mi North 3.5 mph - N/A   Overcast
10:53 AM 41.0 °F 38.0 °F 30.0 °F 65% 30.19 in 10.0 mi NE 4.6 mph - 0.01 in   Overcast
11:53 AM 44.1 °F 42.5 °F 30.9 °F 60% 30.15 in 10.0 mi Variable 3.5 mph - 0.01 in   Partly Cloudy
12:53 PM 46.0 °F - 32.0 °F 58% 30.12 in 10.0 mi Calm Calm - 0.01 in   Scattered Clouds
1:53 PM 46.9 °F - 32.0 °F 56% 30.09 in 10.0 mi Calm Calm - N/A   Overcast
2:53 PM 46.9 °F - 32.0 °F 56% 30.08 in 10.0 mi West 3.5 mph - N/A   Overcast
3:53 PM 45.0 °F 43.5 °F 30.9 °F 58% 30.08 in 10.0 mi West 3.5 mph - 0.01 in   Overcast
4:53 PM 39.9 °F - 30.9 °F 70% 30.08 in 10.0 mi Calm Calm - N/A   Scattered Clouds
5:53 PM 37.0 °F - 30.0 °F 76% 30.07 in 10.0 mi Calm Calm - 0.01 in   Overcast
6:53 PM 36.0 °F - 30.0 °F 79% 30.07 in 10.0 mi Calm Calm - 0.01 in   Overcast
7:53 PM 36.0 °F - 30.0 °F 79% 30.06 in 10.0 mi Calm Calm - 0.01 in   Overcast
8:53 PM 36.0 °F - 30.0 °F 79% 30.05 in 10.0 mi Calm Calm - 0.02 in   Overcast
9:53 PM 36.0 °F - 30.0 °F 79% 30.05 in 10.0 mi Calm Calm - 0.01 in   Overcast
10:53 PM 30.9 °F - 27.0 °F 85% 30.04 in 9.0 mi Calm Calm - 0.02 in   Clear
11:53 PM 30.0 °F - 27.0 °F 88% 30.03 in 8.0 mi Calm Calm - 0.01 in   Clear